Location: Bow
(51.5261°N, 0.0167°W)
Time: 03:47:33
(UTC+00:00)

Cosmos 1464 Rocket - Pass Details

Date: 18 September 2020
Orbit: 953 x 1001 km, 82.9° (Epoch: 19 October)

Event Time Altitude Azimuth Distance (km) Brightness Sun altitude
Rises 19:43:13 0° 188° (S) 3,617 6.8 -15.4°
Reaches altitude 10° 19:45:41 10° 189° (S) 2,677 6.2 -15.8°
Maximum altitude 19:51:49 88° 281° (W) 966 4.0 -16.6°
Drops below altitude 10° 19:58:02 10° 10° (N) 2,713 6.5 -17.5°
Sets 20:00:34 0° 11° (N) 3,670 7.2 -17.9°
